SCP
0 0 0 0 0 0 0 0 0 0 0 0 0 0 0 0 0 0 0 0 0 0 0 0 0 0 0 0 0 0 0 0 0 0 -0 0 0 0 0 0 0 0 0 0 0
0 0 0 0 0 0 0 0 0 0 0 0 0 0 0 0 0 -0 0 0 0 0 0 0 0 0 0 0 0 0 -0 0 0 0 -0 0 0 0 0 0 0 0 0 0 0
0 0 0 0 0 0 0 0 0 0 0 0 0 0 0 0 0 0 0 0 0 0 0 0 0 0 0 0 0 0 -0 0 0 0 0 0 0 0 0 0 -0 -0 0 0 0
0 0 0 0 0 0 0 0 0 0 0 0 0 0 0 0 0 0 0 0 0 0 0 0 0 0 0 0 0 0 0 0 0 0 0 0 0 0 0 0 0 0 0 -0 -0
0 0 0 0 0 0 0 0 0 0 0 0 0 0 0 0 0 0 0 0 0 0 0 0 0 0 0 0 0 0 0 0 0 0 0 0 0 0 0 0 0 0 0 -0 -0
0 0 0 0 0 0 0 0 0 0 0 0 0 0 0 0 0 0 0 0 0 0 0 0 0 0 0 0 0 0 0 0 0 0 0 0 0 0 0 0 0 0 0 0 0
0 0 0 0 0 0 0 0 0 0 0 0 0 0 0 0 0 0 0 0 0 0 0 0 0 0 0 0 0 0 0 0 0 0 0 0 0 0 0 0 0 0 0 0 0
0 0 0 0 0 0 0 0 -0 0 0 0 0 0 0 0 0 0 0 0 0 0 0 0 0 0 0 0 0 0 0 0 0 0 0 0 0 0 0 0 0 0 0 0 0
0 0 0 0 0 0 0 0 -0 0 0 0 0 0 0 0 0 0 0 0 0 0 0 0 0 0 0 0 0 0 0 0 0 0 0 0 0 0 0 0 0 0 0 0 0
0 0 0 0 0 0 0 0 0 0 0 0 0 0 0 0 0 0 0 0 0 0 0 0 0 0 0 0 0 0 0 0 0 0 0 0 0 0 0 0 0 0 0 0 0
-0 0 0 0 0 0 0 0 0 0 0 0 0 0 0 0 0 0 0 0 0 0 0 0 0 0 0 0 0 0 0 0 0 0 0 0 0 0 0 0 0 0 0 0 0
-0 -0 -0 0 0 0 0 0 0 0 0 0 0 0 0 0 0 0 0 0 0 0 0 0 0 0 0 0 0 0 0 0 0 0 0 0 0 0 0 0 0 0 0 0 0
-0 -0 -0 0 0 0 0 0 0 0 0 0 0 0 0 0 0 0 0 0 0 0 0 0 0 0 0 0 0 0 0 0 0 0 0 0 0 0 0 0 0 0 0 0 0
-0 -0 -0 0 0 0 0 0 0 0 0 0 0 0 0 0 0 0 0 0 0 0 0 0 0 0 0 0 0 0 0 0 0 0 0 0 0 0 0 0 0 0 0 0 0
-0 -0 0 0 0 0 0 0 0 0 0 0 0 0 0 0 0 0 0 0 0 0 0 0 0 0 0 0 0 0 0 0 0 0 0 0 0 0 0 0 0 0 0 0 0
-0 0 0 0 0 0 0 0 0 0 0 0 0 0 0 0 0 0 0 0 0 0 0 0 0 0 0 0 0 0 0 0 0 0 0 0 0 0 0 0 0 0 0 0 0
-0 0 0 0 0 0 0 0 0 0 0 0 0 0 0 0 0 0 0 0 0 0 0 0 0 0 0 0 0 0 0 0 0 0 0 0 0 0 0 0 0 0 0 0 0
-0 -0 0 0 0 0 0 0 0 0 0 -0 0 0 0 0 0 0 0 0 0 0 0 0 0 0 0 0 0 0 0 0 0 0 0 0 0 0 0 0 0 0 0 0 0
-0 -0 -0 -0 0 0 0 0 0 0 0 0 0 0 0 0 0 0 0 0 0 0 0 0 0 0 0 0 0 0 0 0 0 0 0 0 0 0 0 0 0 0 0 0 0
-0 -0 0 0 0 0 0 0 0 0 0 0 0 0 0 0 0 0 0 0 0 0 0 0 0 0 0 0 0 0 0 0 0 0 0 0 0 0 0 0 0 0 0 0 0
-0 0 -0 -0 0 -0 0 0 0 0 0 0 0 0 0 0 0 0 0 0 0 0 0 -0 0 0 0 0 0 0 0 0 0 0 0 0 0 0 0 0 0 0 0 0 0
-0 0 -0 0 -0 -0 0 0 0 0 -0 -0 0 -0 0 0 0 0 0 0 0 0 0 0 0 0 0 0 0 0 0 0 0 0 0 0 0 0 0 0 0 0 0 0 0
0 0 -0 -0 0 -0 0 -0 0 0 0 -0 0 -0 0 0 0 0 0 0 0 0 0 0 0 0 0 0 0 0 0 0 0 0 0 0 0 0 0 0 0 0 0 0 0
-0 0 -0 -0 0 0 -0 0 -0 -0 0 0 -0 -0 0 0 0 0 0 0 -0 0 0 0 0 0 0 0 0 0 0 0 0 0 0 0 0 0 0 0 0 0 0 0 0
-0 0 0 0 -0 0 -0 -0 0 -0 -0 -0 -0 -0 -0 0 0 0 0 0 0 0 0 0 0 0 0 0 0 0 0 0 0 0 0 0 0 0 0 0 0 0 0 0 0
0 0 0 0 0 -0 -0 0 0 -0 0 -0 0 -0 -0 0 0 0 0 0 0 0 0 0 0 0 0 0 0 0 0 0 0 0 0 0 0 0 0 0 0 0 0 0 0
0 0 0 0 0 -0 -0 -0 0 0 0 -0 -0 -0 -0 0 0 0 0 0 0 0 0 0 0 0 0 0 0 0 0 0 0 0 0 0 0 0 0 0 0 0 0 0 0
Wind_Speed_500mb
14 14 16 18 17 15 17 18 18 19 20 22 25 26 25 28 26 22 14 13 15 18 13 22 5 9 8 6 6 7 6 5 6 2 9 12 6 18 21 31 24 15 23 26 31
15 16 17 20 19 20 16 16 17 20 20 20 20 22 23 24 24 25 25 21 25 23 17 12 9 12 8 6 6 5 5 6 8 5 7 13 13 13 13 28 22 39 31 25 20
17 14 15 18 19 18 17 18 16 15 19 19 16 16 17 13 17 10 14 17 25 23 19 9 7 6 6 10 10 6 8 3 10 9 18 3 16 9 12 7 23 39 37 22 21
18 16 15 16 18 19 17 15 18 16 13 16 15 12 10 8 10 8 5 10 16 16 16 7 1 4 5 5 11 2 10 11 3 8 3 5 11 16 23 13 27 30 25 22 21
15 14 13 17 17 17 19 17 15 19 14 12 14 11 9 15 15 11 3 4 10 17 20 14 8 4 5 7 13 5 3 5 15 10 14 10 24 12 28 29 34 32 25 28 25
18 17 16 16 18 18 19 18 17 15 15 11 11 11 14 8 11 24 31 8 3 13 17 23 11 4 9 11 2 1 7 10 5 6 5 7 7 10 20 29 32 29 26 23 20
20 19 19 17 16 18 22 19 14 9 13 10 11 11 14 28 10 13 24 21 13 9 12 18 17 13 5 6 8 6 5 6 3 4 3 4 8 6 20 27 40 42 42 38 41
22 20 20 18 15 16 19 17 9 5 8 10 9 9 12 12 29 19 10 13 24 14 16 6 15 18 10 3 16 5 6 6 8 11 2 7 3 8 6 16 37 54 51 41 32
22 22 20 17 15 14 16 13 7 4 5 8 9 10 10 8 28 25 29 12 10 21 13 11 14 9 10 10 5 9 10 7 2 14 5 6 9 26 24 44 56 56 48 40 30
21 22 20 17 14 12 13 11 6 7 2 8 10 5 18 11 13 12 29 21 12 19 13 11 10 8 4 12 25 13 14 30 10 11 11 11 17 21 46 66 54 57 57 49 39
20 22 20 16 9 10 11 5 6 1 7 12 5 10 2 3 12 14 33 24 20 15 11 16 8 18 18 4 10 13 14 17 15 5 13 25 20 16 32 53 51 54 54 49 41
23 21 17 14 7 6 5 3 4 7 10 14 29 29 31 12 7 21 34 29 17 10 11 7 18 9 11 15 11 7 13 11 9 27 10 7 17 15 32 25 40 44 44 42 32
24 22 16 11 4 3 1 1 3 5 7 8 24 25 30 21 10 17 38 28 11 15 19 10 4 28 14 15 23 13 14 12 16 17 17 8 4 8 12 35 43 44 41 38 36
25 21 17 12 8 4 2 1 6 6 4 7 7 10 17 19 13 29 44 26 7 19 15 11 14 20 16 17 19 28 12 11 29 12 9 12 5 10 12 14 25 35 37 34 34
25 21 20 14 8 7 3 4 2 4 7 7 4 5 7 17 7 25 35 37 13 11 11 12 14 11 11 12 17 8 31 11 21 10 10 11 7 8 25 16 15 25 32 33 33
24 20 17 9 3 2 6 2 4 9 10 7 5 6 10 20 7 16 26 28 17 6 3 13 12 13 14 5 9 15 22 17 15 6 7 12 9 9 11 24 17 26 30 29 31
21 17 10 5 5 8 8 5 9 5 7 12 6 10 9 11 7 8 4 14 10 10 9 8 9 4 10 13 20 33 26 6 6 6 5 13 6 3 6 16 34 34 35 31 30
17 11 8 6 14 17 10 7 2 8 6 4 7 16 8 4 13 7 13 7 12 6 7 10 9 12 6 11 17 30 11 10 12 13 8 13 14 10 7 35 45 42 39 33 29
15 20 24 21 16 7 7 3 9 5 9 12 14 4 4 3 4 8 11 5 5 11 5 10 1 6 4 4 14 12 16 8 9 4 8 8 6 5 11 16 37 37 35 31 26
16 19 26 14 8 3 5 7 4 3 7 6 5 4 5 4 4 7 9 5 3 5 8 5 7 3 2 4 5 10 16 8 4 11 6 6 9 9 23 21 19 30 34 31 27
7 10 12 8 4 6 5 2 5 10 12 5 6 7 6 4 7 5 7 1 3 10 10 13 2 8 7 4 9 5 8 4 8 6 8 9 7 12 32 29 25 35 34 30 26
2 6 8 2 9 3 4 4 4 5 9 4 5 6 6 6 2 5 6 6 1 8 3 5 5 7 7 6 3 3 7 9 8 5 4 6 4 3 24 33 46 41 33 28 22
5 5 8 4 5 3 6 4 4 4 7 5 4 2 5 4 4 6 6 5 10 10 3 4 5 5 7 4 7 6 4 5 9 6 3 9 6 7 35 37 44 39 31 27 22
3 4 8 13 7 8 4 6 6 11 7 10 9 1 5 6 9 6 5 5 17 3 15 2 8 4 6 5 6 9 7 3 8 7 7 5 16 15 24 24 38 34 29 27 25
3 3 3 3 7 4 6 6 5 9 11 22 8 16 8 4 5 6 5 7 11 20 10 6 8 6 4 9 8 5 11 9 5 7 8 16 32 32 26 27 44 37 32 32 29
5 10 8 8 1 1 3 5 2 7 6 6 10 18 19 10 10 9 3 6 2 6 6 4 4 3 15 20 13 13 9 17 8 8 13 19 4 11 34 42 38 35 32 32 30
9 18 5 2 2 5 4 5 1 2 7 11 2 7 16 9 10 19 28 25 12 2 4 5 9 6 4 9 11 9 5 5 6 3 14 13 11 27 21 36 41 34 31 31 31
Wind_Direction_500mb
299 315 328 333 317 297 276 272 274 273 271 273 264 263 273 275 277 285 285 240 239 258 291 272 299 324 283 277 274 304 44 40 70 209 240 156 90 76 99 101 77 92 128 145 161
282 290 308 319 318 311 291 272 277 273 272 275 281 264 267 278 282 286 261 252 246 257 278 300 276 334 302 258 235 154 101 238 163 121 303 128 126 122 120 114 95 106 123 142 145
293 285 297 312 319 316 305 281 274 270 264 266 274 285 258 280 299 248 238 242 243 250 259 274 292 319 291 283 218 198 206 350 338 277 354 118 87 67 119 27 167 153 146 144 133
294 295 297 308 317 313 311 299 275 277 276 262 265 272 249 205 208 95 39 239 235 229 223 223 222 230 239 272 238 316 289 284 238 99 69 53 87 68 88 98 138 129 131 135 132
268 281 292 304 308 321 313 305 292 272 272 256 252 243 223 208 221 274 268 77 160 197 209 187 209 209 257 299 294 207 292 73 124 83 68 100 81 96 112 108 124 113 110 106 103
260 263 273 287 301 314 328 310 303 278 267 258 247 236 218 217 234 255 254 228 123 159 170 182 170 229 269 261 81 17 322 255 121 102 79 86 84 102 139 121 118 119 116 113 97
259 255 262 272 293 304 326 323 310 283 256 253 230 234 230 229 231 243 244 235 229 186 170 181 224 193 186 273 181 57 47 43 89 139 27 81 49 87 127 126 129 115 110 112 108
247 244 251 267 286 300 322 328 311 301 263 244 222 228 253 196 203 213 197 204 219 212 198 139 198 214 182 227 167 124 75 115 286 152 57 91 47 7 144 158 135 112 110 106 93
232 240 238 259 277 299 317 324 318 305 259 227 209 220 254 244 230 234 222 173 173 198 198 188 201 195 188 160 109 178 165 261 2 46 109 87 125 11 53 104 102 102 96 91 79
218 227 230 238 261 294 313 324 275 303 310 212 218 260 247 234 231 242 188 173 169 178 175 174 195 180 203 171 192 180 155 185 201 359 20 101 69 23 65 84 80 88 87 81 74
214 211 220 223 254 295 319 359 19 296 231 205 228 241 67 29 222 201 186 174 180 174 172 190 165 214 179 225 139 150 151 143 185 236 11 85 69 41 58 78 77 79 82 78 73
200 199 206 205 234 297 322 32 342 301 306 261 244 246 250 301 288 214 182 185 180 170 206 158 223 208 198 196 225 173 149 155 110 162 102 139 76 57 55 65 81 84 81 82 79
182 184 191 187 189 154 163 359 272 319 286 273 238 245 244 235 248 225 193 199 171 174 200 170 212 191 208 199 205 204 167 169 134 121 103 79 34 28 45 69 77 82 84 82 81
168 171 161 156 155 182 28 253 276 291 324 237 251 256 204 188 252 221 202 194 235 190 175 214 257 181 203 226 195 209 122 123 139 126 172 141 201 163 126 76 69 79 82 84 87
155 157 151 158 158 146 242 218 282 154 27 292 203 197 180 183 290 197 197 202 195 198 154 212 173 174 192 211 175 177 135 113 91 99 125 174 150 177 142 141 119 94 90 87 85
143 144 152 169 164 228 253 118 141 49 253 308 265 241 166 229 271 180 193 194 209 256 254 183 186 158 186 85 120 103 103 50 63 73 206 191 137 173 181 151 130 111 103 95 92
141 150 152 110 41 105 142 123 46 252 288 311 330 356 278 195 223 118 202 181 181 153 177 147 162 154 153 105 111 117 135 128 133 191 189 184 126 84 93 133 135 131 118 110 104
132 130 99 86 112 109 94 53 135 238 298 316 298 306 244 188 220 145 148 203 246 260 133 158 194 174 187 171 168 160 170 141 162 174 154 121 168 181 156 123 130 130 125 120 110
102 97 83 104 109 100 117 142 199 323 326 327 315 301 301 305 242 130 166 147 259 207 201 164 91 27 95 84 156 158 208 114 78 16 101 141 116 48 154 132 132 133 130 124 115
97 82 63 70 76 66 91 133 270 312 300 256 293 179 231 226 186 128 181 346 268 325 39 191 130 254 327 85 34 166 159 143 110 167 142 177 176 189 176 168 157 142 137 131 125
126 99 54 51 16 62 80 135 284 295 287 286 319 289 309 220 198 95 36 24 11 310 325 153 22 145 103 21 161 120 149 107 121 142 141 143 228 191 175 167 159 152 144 139 135
106 75 37 49 48 35 98 185 286 297 311 254 245 279 305 338 103 91 118 42 157 342 139 223 104 90 113 270 261 266 143 131 132 225 48 92 275 77 155 150 148 150 145 142 140
61 90 31 157 95 321 306 292 244 294 287 314 254 250 287 308 141 96 90 80 111 353 132 327 117 80 109 17 355 79 47 115 104 78 182 131 228 90 130 141 154 151 148 147 144
144 41 50 75 64 129 112 308 324 328 296 317 1 139 286 23 37 104 96 152 145 143 355 335 62 188 151 164 149 159 163 93 113 103 161 178 148 166 154 150 153 157 156 156 154
100 140 89 34 3 15 117 169 10 356 337 18 42 358 311 70 51 65 117 122 20 164 44 39 79 59 51 351 116 116 132 129 93 124 143 169 170 182 171 157 161 160 162 162 165
151 148 113 117 342 32 46 352 111 293 29 360 77 21 34 78 34 48 297 22 142 355 99 96 122 8 26 2 66 94 98 100 89 94 70 137 125 137 160 161 158 168 175 180 179
145 132 112 80 310 86 237 191 343 338 30 55 302 84 50 61 45 26 73 71 68 104 90 79 132 93 314 345 0 28 247 122 123 109 143 161 193 147 146 157 167 172 185 192 194
Wind_Speed_850mb
14 14 16 18 17 15 17 18 18 19 20 22 25 26 25 28 26 22 14 13 15 18 13 22 5 9 8 6 6 7 6 5 6 2 9 12 6 18 21 31 24 15 23 26 31
15 16 17 20 19 20 16 16 17 20 20 20 20 22 23 24 24 25 25 21 25 23 17 12 9 12 8 6 6 5 5 6 8 5 7 13 13 13 13 28 22 39 31 25 20
17 14 15 18 19 18 17 18 16 15 19 19 16 16 17 13 17 10 14 17 25 23 19 9 7 6 6 10 10 6 8 3 10 9 18 3 16 9 12 7 23 39 37 22 21
18 16 15 16 18 19 17 15 18 16 13 16 15 12 10 8 10 8 5 10 16 16 16 7 1 4 5 5 11 2 10 11 3 8 3 5 11 16 23 13 27 30 25 22 21
15 14 13 17 17 17 19 17 15 19 14 12 14 11 9 15 15 11 3 4 10 17 20 14 8 4 5 7 13 5 3 5 15 10 14 10 24 12 28 29 34 32 25 28 25
18 17 16 16 18 18 19 18 17 15 15 11 11 11 14 8 11 24 31 8 3 13 17 23 11 4 9 11 2 1 7 10 5 6 5 7 7 10 20 29 32 29 26 23 20
20 19 19 17 16 18 22 19 14 9 13 10 11 11 14 28 10 13 24 21 13 9 12 18 17 13 5 6 8 6 5 6 3 4 3 4 8 6 20 27 40 42 42 38 41
22 20 20 18 15 16 19 17 9 5 8 10 9 9 12 12 29 19 10 13 24 14 16 6 15 18 10 3 16 5 6 6 8 11 2 7 3 8 6 16 37 54 51 41 32
22 22 20 17 15 14 16 13 7 4 5 8 9 10 10 8 28 25 29 12 10 21 13 11 14 9 10 10 5 9 10 7 2 14 5 6 9 26 24 44 56 56 48 40 30
21 22 20 17 14 12 13 11 6 7 2 8 10 5 18 11 13 12 29 21 12 19 13 11 10 8 4 12 25 13 14 30 10 11 11 11 17 21 46 66 54 57 57 49 39
20 22 20 16 9 10 11 5 6 1 7 12 5 10 2 3 12 14 33 24 20 15 11 16 8 18 18 4 10 13 14 17 15 5 13 25 20 16 32 53 51 54 54 49 41
23 21 17 14 7 6 5 3 4 7 10 14 29 29 31 12 7 21 34 29 17 10 11 7 18 9 11 15 11 7 13 11 9 27 10 7 17 15 32 25 40 44 44 42 32
24 22 16 11 4 3 1 1 3 5 7 8 24 25 30 21 10 17 38 28 11 15 19 10 4 28 14 15 23 13 14 12 16 17 17 8 4 8 12 35 43 44 41 38 36
25 21 17 12 8 4 2 1 6 6 4 7 7 10 17 19 13 29 44 26 7 19 15 11 14 20 16 17 19 28 12 11 29 12 9 12 5 10 12 14 25 35 37 34 34
25 21 20 14 8 7 3 4 2 4 7 7 4 5 7 17 7 25 35 37 13 11 11 12 14 11 11 12 17 8 31 11 21 10 10 11 7 8 25 16 15 25 32 33 33
24 20 17 9 3 2 6 2 4 9 10 7 5 6 10 20 7 16 26 28 17 6 3 13 12 13 14 5 9 15 22 17 15 6 7 12 9 9 11 24 17 26 30 29 31
21 17 10 5 5 8 8 5 9 5 7 12 6 10 9 11 7 8 4 14 10 10 9 8 9 4 10 13 20 33 26 6 6 6 5 13 6 3 6 16 34 34 35 31 30
17 11 8 6 14 17 10 7 2 8 6 4 7 16 8 4 13 7 13 7 12 6 7 10 9 12 6 11 17 30 11 10 12 13 8 13 14 10 7 35 45 42 39 33 29
15 20 24 21 16 7 7 3 9 5 9 12 14 4 4 3 4 8 11 5 5 11 5 10 1 6 4 4 14 12 16 8 9 4 8 8 6 5 11 16 37 37 35 31 26
16 19 26 14 8 3 5 7 4 3 7 6 5 4 5 4 4 7 9 5 3 5 8 5 7 3 2 4 5 10 16 8 4 11 6 6 9 9 23 21 19 30 34 31 27
7 10 12 8 4 6 5 2 5 10 12 5 6 7 6 4 7 5 7 1 3 10 10 13 2 8 7 4 9 5 8 4 8 6 8 9 7 12 32 29 25 35 34 30 26
2 6 8 2 9 3 4 4 4 5 9 4 5 6 6 6 2 5 6 6 1 8 3 5 5 7 7 6 3 3 7 9 8 5 4 6 4 3 24 33 46 41 33 28 22
5 5 8 4 5 3 6 4 4 4 7 5 4 2 5 4 4 6 6 5 10 10 3 4 5 5 7 4 7 6 4 5 9 6 3 9 6 7 35 37 44 39 31 27 22
3 4 8 13 7 8 4 6 6 11 7 10 9 1 5 6 9 6 5 5 17 3 15 2 8 4 6 5 6 9 7 3 8 7 7 5 16 15 24 24 38 34 29 27 25
3 3 3 3 7 4 6 6 5 9 11 22 8 16 8 4 5 6 5 7 11 20 10 6 8 6 4 9 8 5 11 9 5 7 8 16 32 32 26 27 44 37 32 32 29
5 10 8 8 1 1 3 5 2 7 6 6 10 18 19 10 10 9 3 6 2 6 6 4 4 3 15 20 13 13 9 17 8 8 13 19 4 11 34 42 38 35 32 32 30
9 18 5 2 2 5 4 5 1 2 7 11 2 7 16 9 10 19 28 25 12 2 4 5 9 6 4 9 11 9 5 5 6 3 14 13 11 27 21 36 41 34 31 31 31
Wind_Direction_850mb
299 315 328 333 317 297 276 272 274 273 271 273 264 263 273 275 277 285 285 240 239 258 291 272 299 324 283 277 274 304 44 40 70 209 240 156 90 76 99 101 77 92 128 145 161
282 290 308 319 318 311 291 272 277 273 272 275 281 264 267 278 282 286 261 252 246 257 278 300 276 334 302 258 235 154 101 238 163 121 303 128 126 122 120 114 95 106 123 142 145
293 285 297 312 319 316 305 281 274 270 264 266 274 285 258 280 299 248 238 242 243 250 259 274 292 319 291 283 218 198 206 350 338 277 354 118 87 67 119 27 167 153 146 144 133
294 295 297 308 317 313 311 299 275 277 276 262 265 272 249 205 208 95 39 239 235 229 223 223 222 230 239 272 238 316 289 284 238 99 69 53 87 68 88 98 138 129 131 135 132
268 281 292 304 308 321 313 305 292 272 272 256 252 243 223 208 221 274 268 77 160 197 209 187 209 209 257 299 294 207 292 73 124 83 68 100 81 96 112 108 124 113 110 106 103
260 263 273 287 301 314 328 310 303 278 267 258 247 236 218 217 234 255 254 228 123 159 170 182 170 229 269 261 81 17 322 255 121 102 79 86 84 102 139 121 118 119 116 113 97
259 255 262 272 293 304 326 323 310 283 256 253 230 234 230 229 231 243 244 235 229 186 170 181 224 193 186 273 181 57 47 43 89 139 27 81 49 87 127 126 129 115 110 112 108
247 244 251 267 286 300 322 328 311 301 263 244 222 228 253 196 203 213 197 204 219 212 198 139 198 214 182 227 167 124 75 115 286 152 57 91 47 7 144 158 135 112 110 106 93
232 240 238 259 277 299 317 324 318 305 259 227 209 220 254 244 230 234 222 173 173 198 198 188 201 195 188 160 109 178 165 261 2 46 109 87 125 11 53 104 102 102 96 91 79
218 227 230 238 261 294 313 324 275 303 310 212 218 260 247 234 231 242 188 173 169 178 175 174 195 180 203 171 192 180 155 185 201 359 20 101 69 23 65 84 80 88 87 81 74
214 211 220 223 254 295 319 359 19 296 231 205 228 241 67 29 222 201 186 174 180 174 172 190 165 214 179 225 139 150 151 143 185 236 11 85 69 41 58 78 77 79 82 78 73
200 199 206 205 234 297 322 32 342 301 306 261 244 246 250 301 288 214 182 185 180 170 206 158 223 208 198 196 225 173 149 155 110 162 102 139 76 57 55 65 81 84 81 82 79
182 184 191 187 189 154 163 359 272 319 286 273 238 245 244 235 248 225 193 199 171 174 200 170 212 191 208 199 205 204 167 169 134 121 103 79 34 28 45 69 77 82 84 82 81
168 171 161 156 155 182 28 253 276 291 324 237 251 256 204 188 252 221 202 194 235 190 175 214 257 181 203 226 195 209 122 123 139 126 172 141 201 163 126 76 69 79 82 84 87
155 157 151 158 158 146 242 218 282 154 27 292 203 197 180 183 290 197 197 202 195 198 154 212 173 174 192 211 175 177 135 113 91 99 125 174 150 177 142 141 119 94 90 87 85
143 144 152 169 164 228 253 118 141 49 253 308 265 241 166 229 271 180 193 194 209 256 254 183 186 158 186 85 120 103 103 50 63 73 206 191 137 173 181 151 130 111 103 95 92
141 150 152 110 41 105 142 123 46 252 288 311 330 356 278 195 223 118 202 181 181 153 177 147 162 154 153 105 111 117 135 128 133 191 189 184 126 84 93 133 135 131 118 110 104
132 130 99 86 112 109 94 53 135 238 298 316 298 306 244 188 220 145 148 203 246 260 133 158 194 174 187 171 168 160 170 141 162 174 154 121 168 181 156 123 130 130 125 120 110
102 97 83 104 109 100 117 142 199 323 326 327 315 301 301 305 242 130 166 147 259 207 201 164 91 27 95 84 156 158 208 114 78 16 101 141 116 48 154 132 132 133 130 124 115
97 82 63 70 76 66 91 133 270 312 300 256 293 179 231 226 186 128 181 346 268 325 39 191 130 254 327 85 34 166 159 143 110 167 142 177 176 189 176 168 157 142 137 131 125
126 99 54 51 16 62 80 135 284 295 287 286 319 289 309 220 198 95 36 24 11 310 325 153 22 145 103 21 161 120 149 107 121 142 141 143 228 191 175 167 159 152 144 139 135
106 75 37 49 48 35 98 185 286 297 311 254 245 279 305 338 103 91 118 42 157 342 139 223 104 90 113 270 261 266 143 131 132 225 48 92 275 77 155 150 148 150 145 142 140
61 90 31 157 95 321 306 292 244 294 287 314 254 250 287 308 141 96 90 80 111 353 132 327 117 80 109 17 355 79 47 115 104 78 182 131 228 90 130 141 154 151 148 147 144
144 41 50 75 64 129 112 308 324 328 296 317 1 139 286 23 37 104 96 152 145 143 355 335 62 188 151 164 149 159 163 93 113 103 161 178 148 166 154 150 153 157 156 156 154
100 140 89 34 3 15 117 169 10 356 337 18 42 358 311 70 51 65 117 122 20 164 44 39 79 59 51 351 116 116 132 129 93 124 143 169 170 182 171 157 161 160 162 162 165
151 148 113 117 342 32 46 352 111 293 29 360 77 21 34 78 34 48 297 22 142 355 99 96 122 8 26 2 66 94 98 100 89 94 70 137 125 137 160 161 158 168 175 180 179
145 132 112 80 310 86 237 191 343 338 30 55 302 84 50 61 45 26 73 71 68 104 90 79 132 93 314 345 0 28 247 122 123 109 143 161 193 147 146 157 167 172 185 192 194